Tracking 19847 objects as of 15-Sep-2019
HD Live streaming from Space Station
objects crossing your sky now

FENGYUN 1C DEB

Track FENGYUN 1C DEB now!
10-day predictions


NORAD ID: 35104
Int'l Code: 1999-025DKG
Perigee: 821.6 km
Apogee: 868.7 km
Inclination: 98.8 °
Period: 101.7 minutes
Semi major axis: 7216 km
RCS: 0.011 m2 (small)
Launch date: May 10, 1999
Source: People's Republic of China (PRC)
Launch site: Taiyaun Space Center, China (TSC)

Note: This is SATELLITE DEBRIS
aabbcc
Your satellite tracking list
Your tracking list is empty




NASA's NSSDC Master Catalog

Two Line Element Set (TLE):
1 35104U 99025DKG 19257.94826484  .00000146  00000-0  95262-4 0  9996
2 35104  98.7681 289.6857 0032613 212.5735 266.3164 14.16257359576806
Source of the keplerian elements: AFSPC